Weather History for Fryeburg, ME

Change the Weather History Date:

Monday, February 25, 2013

  Actual Average Record
Temperature  
Mean Temperature 32 °F -  
Max Temperature 39 °F 34 °F 43 °F (2002)
Min Temperature 26 °F 11 °F -9 °F (2003)
Degree Days  
Heating Degree Days 32    
Moisture  
Dew Point 28 °F    
Average Humidity 86    
Maximum Humidity 100    
Minimum Humidity 65    
Precipitation  
Precipitation 0.01 in - - ()
Sea Level Pressure  
Sea Level Pressure 30.10 in    
Wind  
Wind Speed 0 mph (WSW)    
Max Wind Speed 5 mph    
Max Gust Speed -    
Visibility 8 miles    
Events Fog , Rain , Snow    
Averages and records for this station are not official NWS values.
T = Trace of Precipitation, MM = Missing Value Source: NWS Daily Summary

Daily Weather History Graph

Daily Weather History Graph

Search for Another Location

Airport:

Trip Planner

Search our weather history database for the weather conditions in past years. The results will help you decide how hot, cold, wet, or windy it might be!

Date:

Astronomy

Feb. 25, 2013 Rise Set
Actual Time 6:26 AM EST 5:27 PM EST
Civil Twilight 5:57 AM EST 5:56 PM EST
Nautical Twilight 5:24 AM EST 6:29 PM EST
Astronomical Twilight 4:51 AM EST 7:03 PM EST
Moon 5:39 PM EST (2/25) 5:54 AM EST (2/25)
Length of Visible Light 11h 58m
Length of Day
11h 00m
Full, 100% of the Moon is Illuminated
Feb 25
Full
Feb 25
Full
Mar 4
Last Quarter
Mar 11
New
Mar 19
First Quarter

Hourly Weather History & Observations

Time (EST) Temp. Windchill Dew Point Humidity Pressure Visibility Wind Dir Wind Speed Gust Speed Precip Events Conditions
12:14 AM 28.4 °F - 26.6 °F 93% 29.90 in 3.0 mi Calm Calm - 0.00 in Snow Light Snow
12:54 AM 28.0 °F - 26.1 °F 92% 29.93 in 3.0 mi Calm Calm - 0.00 in Snow Light Snow
1:12 AM 26.6 °F - 26.6 °F 100% 29.91 in 5.0 mi Calm Calm - 0.00 in Snow Light Snow
1:37 AM 26.6 °F - 26.6 °F 100% 29.92 in 4.0 mi Calm Calm - 0.01 in Snow Light Snow
1:54 AM 27.0 °F - 25.0 °F 92% 29.95 in 5.0 mi Calm Calm - 0.01 in Snow Light Snow
2:54 AM 28.0 °F - 26.1 °F 92% 29.96 in 10.0 mi Calm Calm - 0.00 in   Overcast
3:26 AM 28.4 °F - 26.6 °F 93% 29.94 in 10.0 mi Calm Calm - N/A   Overcast
3:54 AM 28.0 °F - 26.1 °F 92% 29.97 in 10.0 mi Calm Calm - N/A   Overcast
4:54 AM 28.0 °F - 26.1 °F 92% 29.98 in 10.0 mi Calm Calm - N/A   Overcast
5:54 AM 28.0 °F - 26.1 °F 92% 30.00 in 10.0 mi Calm Calm - N/A   Overcast
7:54 AM 30.0 °F - 27.0 °F 88% 30.05 in 10.0 mi Calm Calm - N/A   Overcast
8:54 AM 32.0 °F - 28.9 °F 88% 30.06 in 10.0 mi Calm Calm - 0.00 in   Overcast
9:54 AM 34.0 °F - 30.9 °F 89% 30.07 in 10.0 mi Calm Calm - N/A   Overcast
10:54 AM 35.1 °F 32.2 °F 28.9 °F 78% 30.09 in 10.0 mi East 3.5 mph - N/A   Partly Cloudy
11:31 AM 37.4 °F 34.9 °F 28.4 °F 70% 30.07 in 10.0 mi East 3.5 mph - N/A   Mostly Cloudy
11:54 AM 37.0 °F - 28.0 °F 70% 30.09 in 10.0 mi Calm Calm - N/A   Scattered Clouds
12:23 PM 37.4 °F - 28.4 °F 70% 30.07 in 10.0 mi Calm Calm - 0.00 in Rain Light Rain
12:54 PM 37.9 °F - 28.0 °F 68% 30.09 in 10.0 mi Calm Calm - 0.00 in   Mostly Cloudy
1:05 PM 37.4 °F - 28.4 °F 70% 30.08 in 10.0 mi Calm Calm - 0.00 in Rain Light Rain
1:33 PM 37.4 °F - 28.4 °F 70% 30.08 in 10.0 mi Calm Calm - 0.00 in   Mostly Cloudy
1:54 PM 39.0 °F - 28.9 °F 67% 30.10 in 10.0 mi Calm Calm - 0.00 in   Clear
2:54 PM 39.0 °F 36.8 °F 28.0 °F 65% 30.12 in 10.0 mi SSE 3.5 mph - N/A   Overcast
3:10 PM 39.2 °F 37.0 °F 30.2 °F 70% 30.11 in 10.0 mi WSW 3.5 mph - N/A   Overcast
3:23 PM 39.2 °F - 28.4 °F 65% 30.11 in 10.0 mi Calm Calm - N/A   Overcast
3:54 PM 37.9 °F 34.4 °F 30.0 °F 73% 30.14 in 10.0 mi West 4.6 mph - N/A   Overcast
4:54 PM 37.0 °F - 30.9 °F 79% 30.16 in 10.0 mi Calm Calm - 0.00 in   Overcast
5:54 PM 35.1 °F - 30.9 °F 85% 30.17 in 10.0 mi Calm Calm - N/A   Overcast
6:54 PM 34.0 °F - 32.0 °F 92% 30.18 in 10.0 mi Calm Calm - N/A   Overcast
7:54 PM 30.9 °F - 30.0 °F 96% 30.19 in 10.0 mi Calm Calm - N/A   Overcast
8:54 PM 28.9 °F - 28.0 °F 96% 30.22 in 10.0 mi Calm Calm - N/A   Partly Cloudy
9:29 PM 28.4 °F - 26.6 °F 93% 30.19 in 6.0 mi Calm Calm - N/A   Partly Cloudy
9:54 PM 28.0 °F - 26.1 °F 92% 30.22 in 9.0 mi Calm Calm - N/A   Partly Cloudy
10:34 PM 28.4 °F - 26.6 °F 93% 30.20 in 1.8 mi Calm Calm - N/A   Overcast
10:39 PM 28.4 °F - 26.6 °F 93% 30.20 in 1.0 mi Calm Calm - N/A   Overcast
10:44 PM 28.4 °F - 26.6 °F 93% 30.20 in 0.2 mi Calm Calm - N/A Fog Light Freezing Fog
10:54 PM 27.0 °F - 26.1 °F 96% 30.23 in 0.2 mi Calm Calm - N/A Fog Light Freezing Fog
10:59 PM 26.6 °F - 26.6 °F 100% 30.21 in 0.5 mi Calm Calm - N/A Fog Light Freezing Fog
11:33 PM 28.4 °F 24.6 °F 26.6 °F 93% 30.22 in 1.8 mi WNW 3.5 mph - N/A   Overcast
11:36 PM 28.4 °F 24.6 °F 26.6 °F 93% 30.22 in 3.0 mi WNW 3.5 mph - N/A   Overcast
11:54 PM 28.0 °F - 28.0 °F 100% 30.25 in 9.0 mi Calm Calm - N/A   Overcast